TimeEDT,TemperatureF,Dew PointF,Humidity,Sea Level PressureIn,VisibilityMPH,Wind Direction,Wind SpeedMPH,Gust SpeedMPH,PrecipitationIn,Events,Conditions,WindDirDegrees,DateUTC
12:56 AM,71.1,71.1,100,29.82,10.0,SW,4.6,-,N/A,,Scattered Clouds,230,2013-08-10 04:56:00
1:56 AM,70.0,70.0,100,29.82,10.0,WSW,5.8,-,N/A,,Clear,250,2013-08-10 05:56:00
2:56 AM,69.1,69.1,100,29.83,10.0,WSW,3.5,-,N/A,,Clear,240,2013-08-10 06:56:00
3:56 AM,69.1,69.1,100,29.84,10.0,West,5.8,-,N/A,,Clear,270,2013-08-10 07:56:00
4:56 AM,66.9,66.9,100,29.86,10.0,WSW,5.8,-,N/A,,Clear,250,2013-08-10 08:56:00
5:56 AM,66.0,64.9,96,29.88,10.0,WSW,4.6,-,N/A,,Clear,240,2013-08-10 09:56:00
6:56 AM,66.9,64.9,93,29.90,10.0,West,5.8,-,N/A,,Clear,260,2013-08-10 10:56:00
7:56 AM,70.0,64.9,84,29.91,10.0,West,8.1,-,N/A,,Clear,280,2013-08-10 11:56:00
8:56 AM,73.0,63.0,71,29.92,10.0,WNW,6.9,-,N/A,,Scattered Clouds,290,2013-08-10 12:56:00
9:56 AM,75.0,62.1,64,29.92,10.0,West,11.5,-,N/A,,Clear,270,2013-08-10 13:56:00
10:56 AM,78.1,61.0,56,29.91,10.0,West,9.2,19.6,N/A,,Clear,280,2013-08-10 14:56:00
11:56 AM,79.0,60.1,52,29.91,10.0,WNW,18.4,25.3,N/A,,Scattered Clouds,290,2013-08-10 15:56:00
12:56 PM,80.1,60.1,50,29.91,10.0,West,12.7,23.0,N/A,,Partly Cloudy,270,2013-08-10 16:56:00
1:56 PM,82.0,60.1,47,29.91,10.0,WNW,13.8,19.6,N/A,,Clear,290,2013-08-10 17:56:00
2:56 PM,79.0,57.9,48,29.91,10.0,WNW,11.5,-,N/A,,Mostly Cloudy,300,2013-08-10 18:56:00
3:56 PM,79.0,57.9,48,29.91,10.0,West,11.5,19.6,N/A,,Clear,280,2013-08-10 19:56:00
4:56 PM,80.1,59.0,48,29.93,10.0,WNW,11.5,-,N/A,,Scattered Clouds,290,2013-08-10 20:56:00
5:56 PM,79.0,55.9,45,29.93,10.0,West,12.7,-,N/A,,Scattered Clouds,270,2013-08-10 21:56:00
6:56 PM,75.9,55.9,50,29.95,10.0,West,10.4,-,N/A,,Clear,270,2013-08-10 22:56:00
7:56 PM,71.1,57.0,61,29.97,10.0,WSW,3.5,-,N/A,,Clear,250,2013-08-10 23:56:00
8:56 PM,66.9,57.0,70,29.99,10.0,SW,4.6,-,N/A,,Clear,230,2013-08-11 00:56:00
9:56 PM,63.0,59.0,87,30.01,10.0,Calm,Calm,-,N/A,,Clear,0,2013-08-11 01:56:00
10:56 PM,61.0,59.0,93,30.03,10.0,Calm,Calm,-,N/A,,Clear,0,2013-08-11 02:56:00
11:56 PM,57.9,57.0,97,30.04,10.0,Calm,Calm,-,N/A,,Clear,0,2013-08-11 03:56:00